GFSFLT1_sfc_wetblb_231.txt.gz
Wetbulb
72.04 72.10 72.50 72.55 72.56 72.33 72.34 72.61 72.49 72.36 71.89 70.84 69.93 69.39 69.73 70.37 71.43 70.36 68.87 68.79 68.49 68.71 68.66 68.37 67.89 68.16 67.03 67.85 67.62 67.48 66.33 65.70 66.60
71.82 71.50 71.28 72.06 72.20 72.10 72.28 71.78 72.28 72.34 72.27 72.04 71.08 69.93 70.06 70.32 70.73 69.57 68.74 68.92 69.39 69.12 68.97 68.71 67.91 66.60 67.48 66.78 65.72 66.26 65.71 65.52 65.74
70.34 70.30 70.49 70.92 71.52 71.85 71.57 71.51 71.90 72.32 72.22 72.27 72.15 71.36 71.07 69.62 68.94 69.11 68.67 68.82 69.78 69.78 69.77 69.18 68.32 67.38 67.34 66.34 66.21 65.97 65.24 65.14 65.44
65.43 66.11 67.49 68.51 69.49 70.21 70.66 70.88 71.55 71.73 71.95 72.11 71.94 72.30 71.72 69.38 68.69 68.06 68.37 68.67 69.94 70.71 70.24 69.47 69.04 68.18 67.85 67.09 66.91 66.71 65.85 65.58 65.26
61.36 62.84 64.24 65.31 66.23 66.54 67.57 68.82 69.64 70.38 71.33 71.56 71.80 71.70 71.26 70.64 68.92 68.13 68.43 68.27 69.88 70.65 70.66 69.96 69.48 69.05 68.35 67.88 67.34 66.55 66.47 65.49 66.46
56.97 58.20 60.10 61.52 62.91 62.82 63.78 64.52 66.21 67.37 68.23 69.35 70.72 70.58 69.56 70.41 69.78 68.22 68.62 68.72 69.94 70.68 70.74 70.41 70.08 69.48 69.01 68.40 67.82 67.20 66.48 66.23 66.62
54.05 54.67 56.06 56.98 58.57 58.41 59.67 60.51 62.09 63.08 64.98 67.08 68.75 70.53 70.26 68.42 68.65 68.88 68.31 69.00 70.37 70.83 71.10 70.61 70.22 70.03 69.38 68.73 68.31 67.47 66.89 66.62 66.72
52.06 52.03 52.19 53.36 54.62 53.88 54.76 55.95 57.81 58.63 60.94 64.19 65.84 68.40 68.69 70.76 69.14 68.57 69.29 69.23 69.76 70.96 71.42 71.14 70.50 70.17 69.84 69.17 68.82 67.93 67.31 66.91 66.93
50.95 50.97 51.62 51.85 52.56 52.21 52.54 53.28 54.31 55.43 57.50 60.63 62.84 64.00 66.17 68.58 68.28 68.38 69.49 69.83 70.18 70.48 71.37 71.27 70.71 70.28 70.04 69.32 69.04 68.26 67.56 67.27 67.33
50.87 50.55 51.00 51.25 52.01 51.50 51.14 51.46 51.73 52.79 55.25 56.57 58.66 61.23 63.94 66.00 69.39 69.13 68.67 69.59 70.47 70.29 70.77 71.31 71.11 70.68 70.35 69.73 69.19 68.49 67.84 67.42 67.36
50.39 50.27 50.35 50.28 51.26 51.53 51.27 50.77 50.65 51.45 52.01 53.47 55.93 57.29 59.63 62.97 66.17 69.16 69.41 68.58 69.57 70.12 70.45 71.16 71.20 71.24 70.80 70.16 69.58 68.98 68.28 67.43 67.19
50.16 50.10 50.07 50.45 51.03 51.46 51.15 50.47 50.87 50.19 50.64 50.96 52.14 53.98 56.60 58.91 62.43 66.36 68.09 68.59 68.19 68.92 70.32 71.26 71.02 71.08 71.13 70.69 69.97 69.63 68.43 67.59 67.27
49.97 49.66 49.67 50.55 50.52 50.80 50.45 50.04 49.18 49.19 49.17 48.53 49.21 51.41 54.61 57.08 59.39 63.18 65.96 66.44 67.05 68.02 68.59 70.27 71.22 71.26 70.98 70.94 70.62 69.92 68.56 67.76 67.18
49.85 49.47 49.68 50.16 49.65 49.89 49.80 49.00 49.55 48.16 48.09 47.84 47.85 49.71 51.42 53.66 55.33 57.88 61.76 65.56 66.50 66.64 67.63 68.52 69.20 70.65 71.20 71.02 70.68 70.14 69.11 68.16 67.18
49.18 48.92 48.79 49.34 48.90 48.84 49.44 48.75 49.08 48.73 48.33 47.17 47.10 49.79 52.92 55.12 56.29 57.52 59.99 63.26 65.49 66.20 66.23 68.51 69.00 68.93 70.56 71.01 71.08 70.65 69.89 68.63 67.33
48.19 48.00 48.21 48.58 48.01 48.23 48.70 48.13 47.49 47.47 48.93 47.14 46.03 46.97 48.13 50.00 53.72 57.57 59.36 60.96 62.96 65.37 65.61 66.54 68.85 69.33 68.87 69.42 70.79 71.29 70.76 69.36 67.90
47.12 47.38 47.55 47.79 47.12 46.95 46.82 46.86 45.73 46.98 48.60 45.01 44.42 40.67 44.92 50.98 55.94 57.87 59.61 60.29 61.82 62.50 64.77 65.32 67.24 68.72 69.30 68.84 68.12 68.85 70.89 69.77 68.47
46.73 46.74 46.66 46.31 46.24 45.27 45.69 46.01 45.96 44.23 46.70 47.77 44.36 39.89 38.80 44.88 50.54 53.55 58.76 60.66 61.06 62.40 63.86 64.66 65.41 67.49 68.26 67.74 67.10 66.28 68.31 68.98 69.41
45.53 45.76 45.69 45.49 45.32 44.62 45.32 46.21 46.60 46.40 44.55 46.82 46.84 46.46 44.84 40.47 41.23 49.57 50.77 52.51 57.10 60.71 62.67 64.02 64.92 66.16 67.66 66.44 65.73 65.98 66.31 67.02 68.59
44.08 44.78 44.69 44.49 44.69 44.71 45.31 45.55 46.20 46.60 45.73 45.68 45.49 45.20 45.01 44.96 42.73 40.98 45.57 51.28 54.30 55.75 56.22 62.68 64.31 65.51 65.96 65.28 65.22 65.20 65.30 65.85 66.58

GFSFLT1_sfc_wetblb_237.txt.gz
Wetbulb
71.49 71.63 71.52 71.45 71.65 71.63 71.96 72.19 71.95 72.07 72.18 72.13 71.50 70.71 70.15 70.98 70.23 70.28 70.96 69.69 69.81 69.22 69.20 68.40 69.03 68.05 67.41 68.52 67.10 67.30 66.65 66.69 66.52
68.25 68.78 69.93 70.65 70.67 71.29 71.55 71.48 71.39 71.87 71.86 71.88 72.06 71.83 71.49 69.30 69.14 70.37 70.55 70.16 70.38 69.04 70.03 69.20 68.85 68.42 67.45 68.07 67.33 66.76 66.17 66.53 65.86
64.93 65.63 66.92 67.64 67.79 68.41 68.90 69.00 69.94 70.78 71.06 71.60 71.71 71.66 71.97 69.98 68.32 69.55 70.96 71.85 70.58 69.87 70.14 70.33 69.49 69.09 67.94 68.33 66.99 66.88 66.30 65.77 65.29
59.89 61.10 62.11 63.61 64.00 64.69 65.14 65.30 66.31 67.47 68.22 69.59 70.41 71.28 71.44 70.67 69.43 69.18 69.96 72.12 70.82 70.31 70.57 70.58 70.09 69.53 68.66 68.66 67.71 67.43 66.71 66.15 66.08
57.40 57.59 58.49 59.18 60.13 60.85 61.55 62.14 63.01 63.73 65.04 66.66 68.19 69.14 69.97 70.12 70.46 69.80 69.60 72.53 71.44 70.85 70.85 71.21 70.91 70.27 69.47 68.82 68.58 68.06 67.86 67.07 66.83
54.70 55.51 56.23 56.66 56.99 57.16 57.78 58.68 59.59 61.06 63.55 65.02 66.39 67.55 70.38 70.92 69.94 69.38 71.10 70.85 71.18 71.05 70.98 71.31 71.05 71.03 70.42 69.71 69.41 68.75 68.37 67.58 67.14
53.94 56.38 55.49 56.06 55.97 56.31 55.11 55.91 57.33 59.26 57.54 59.12 62.65 64.32 67.71 68.70 69.43 68.61 69.04 69.82 70.73 70.44 70.66 70.91 70.73 70.84 70.75 70.51 69.86 69.38 68.72 68.03 67.39
53.83 54.39 54.69 55.12 55.82 54.39 54.70 54.48 54.40 54.29 54.53 56.03 57.30 59.44 60.13 63.97 68.81 68.97 69.11 69.53 70.21 71.01 70.42 71.56 70.96 71.01 71.04 70.67 70.47 70.02 69.38 68.65 68.03
53.42 53.53 53.75 54.57 54.28 53.82 53.71 53.62 53.46 53.23 53.19 53.07 53.56 54.20 56.71 59.23 61.97 67.26 67.87 68.55 70.47 71.21 71.20 70.87 71.63 71.29 71.11 70.98 70.70 70.47 70.61 69.27 68.56
53.41 53.29 53.42 53.35 53.71 53.14 52.80 52.65 52.44 52.08 51.91 52.24 52.18 52.26 53.55 55.32 57.54 60.28 66.53 67.18 67.77 69.97 71.19 71.32 71.01 71.19 71.21 71.19 71.10 70.89 70.40 70.03 69.14
52.74 52.82 53.15 52.34 53.42 53.41 52.32 51.74 51.35 50.93 51.09 50.79 51.34 51.53 52.26 52.80 54.58 55.62 59.18 65.08 67.08 67.77 69.99 70.70 70.49 71.10 71.19 71.64 71.55 71.47 70.59 70.26 69.96
50.64 51.61 52.43 52.74 52.77 53.30 52.32 51.71 51.59 50.94 51.02 49.85 50.31 51.09 50.80 51.90 51.78 54.41 55.75 57.49 63.26 67.68 68.14 69.13 70.54 71.18 71.32 71.50 71.60 71.37 71.36 70.47 70.10
49.76 50.05 50.59 52.82 53.23 52.55 51.82 51.43 51.28 50.85 50.13 49.80 50.03 50.22 50.32 49.92 50.60 52.73 53.51 55.01 56.87 61.51 67.23 68.38 68.92 70.10 71.14 71.18 71.42 71.38 71.07 71.18 70.61
49.76 49.66 49.78 50.24 51.17 51.60 51.36 50.51 50.76 49.87 49.89 49.73 50.21 49.91 50.32 50.46 50.35 50.67 52.54 54.05 55.28 55.69 59.89 63.67 67.70 68.44 69.86 71.02 71.36 71.44 71.00 71.16 70.98
50.16 50.07 49.45 49.72 49.22 49.23 49.67 49.29 50.12 49.96 49.96 48.56 48.19 50.01 50.95 51.17 50.90 50.76 51.07 52.69 54.30 56.36 56.78 57.65 62.17 67.57 68.09 69.22 70.63 71.10 70.82 70.82 70.89
49.88 49.67 48.89 49.40 48.75 48.21 49.00 48.70 48.65 48.54 49.31 47.46 47.04 47.72 48.59 48.70 49.79 50.34 51.32 52.37 52.93 53.37 54.97 57.79 59.73 62.28 67.39 68.29 69.37 70.46 70.86 71.11 70.91
48.68 48.72 48.66 48.91 48.35 48.45 48.43 47.93 46.76 47.27 48.19 45.00 44.56 41.64 44.71 48.02 48.30 49.30 50.86 50.28 52.70 56.08 56.91 55.94 57.35 60.30 63.39 65.84 67.07 68.28 69.99 71.22 71.37
47.79 48.09 47.79 47.98 48.21 47.53 48.31 48.03 47.46 45.10 46.78 46.47 44.11 39.69 39.22 43.95 48.02 47.86 49.09 49.59 49.59 51.44 55.60 57.62 59.74 60.05 60.12 63.28 64.84 65.38 67.72 69.73 70.88
46.67 46.63 46.45 46.77 47.27 47.09 47.44 48.23 47.29 46.60 44.20 46.01 45.95 45.62 44.88 41.17 40.76 46.53 47.54 48.63 48.50 49.43 50.96 55.14 56.32 59.39 60.14 61.67 62.71 64.82 65.88 67.33 69.21
46.47 46.32 45.69 45.42 46.14 46.48 46.39 46.68 46.58 46.56 45.08 44.61 44.91 45.20 45.65 45.61 43.27 40.36 43.40 46.74 48.14 49.33 50.36 54.66 56.51 57.37 58.66 59.04 60.87 64.03 64.68 65.54 67.03

GFSFLT1_sfc_wetblb_240.txt.gz
Wetbulb
69.66 69.91 71.42 70.95 71.13 71.67 71.53 71.52 71.78 71.76 71.79 71.77 71.99 71.44 70.66 71.62 68.30 68.24 69.16 67.15 70.58 70.42 70.08 69.06 70.50 68.98 68.50 68.37 68.14 68.07 67.20 67.77 66.98
66.09 66.65 68.02 68.54 69.17 69.92 70.46 70.88 71.29 71.48 71.44 71.49 71.75 71.89 72.05 68.92 66.51 67.08 68.21 67.65 71.30 70.22 70.30 69.70 69.40 69.02 68.31 68.86 68.71 67.91 67.06 67.68 66.46
60.97 62.32 63.52 65.00 65.40 65.94 66.42 66.98 68.37 68.72 69.19 70.46 71.17 71.61 71.66 70.45 67.20 66.51 66.46 70.91 72.12 71.13 70.11 70.49 69.61 68.97 68.78 68.41 67.70 67.45 67.00 66.59 65.91
58.15 58.43 59.36 60.33 61.26 62.19 62.99 63.55 64.44 65.14 65.78 67.66 69.20 70.04 70.72 69.49 69.09 68.16 66.53 72.63 72.73 71.75 70.56 70.46 70.39 69.61 69.32 68.37 68.37 67.58 67.31 66.51 66.29
57.26 57.61 57.03 57.88 58.69 59.61 59.61 60.17 61.09 61.80 62.88 65.08 66.30 68.12 68.35 68.57 68.92 69.22 68.54 72.15 72.44 72.07 71.04 70.91 70.98 70.68 69.98 69.09 69.00 68.36 67.99 67.26 66.88
52.74 55.80 56.63 57.30 57.81 57.75 58.43 58.29 58.72 59.85 61.36 61.87 63.61 66.40 65.62 68.72 69.16 69.47 70.43 69.73 71.60 71.91 71.38 71.25 71.45 70.99 70.82 70.21 69.48 69.10 68.53 68.12 67.27
55.45 56.78 57.61 57.57 57.22 57.35 58.13 57.70 57.92 58.10 52.44 53.34 59.88 57.10 61.37 65.62 67.95 68.47 70.31 70.69 70.10 70.39 70.96 71.20 71.46 71.30 71.13 70.65 70.38 69.91 69.34 68.79 68.10
50.21 49.90 50.64 50.62 54.29 51.11 52.29 51.30 50.73 50.39 50.20 50.98 51.97 54.60 55.38 55.65 65.03 68.42 69.43 69.59 70.00 70.60 70.80 71.06 71.17 71.18 71.26 71.34 70.85 70.60 69.98 69.47 68.50
49.27 49.21 49.47 49.60 50.03 49.29 49.13 48.90 49.24 48.80 49.13 48.96 49.04 49.84 49.97 53.22 55.33 61.67 68.52 68.43 69.60 70.59 71.34 71.26 71.09 70.98 71.16 71.41 71.48 71.06 70.62 70.50 69.41
49.06 48.64 48.71 48.90 49.40 48.83 48.38 48.25 48.34 47.80 47.59 48.03 48.19 47.83 48.47 49.59 51.01 53.61 62.19 67.24 65.80 67.12 69.70 71.15 71.44 71.27 70.96 71.05 71.44 71.62 71.43 70.46 70.51
48.86 48.32 47.79 47.88 48.06 48.37 47.82 47.31 46.96 46.90 47.02 46.41 47.42 47.25 47.37 48.28 49.03 50.40 52.00 61.68 63.06 63.29 65.45 68.94 70.69 71.36 71.38 71.05 70.96 71.42 71.61 70.83 70.66
46.82 46.24 45.26 45.15 47.46 48.35 47.66 47.42 47.18 46.58 47.66 46.25 46.51 46.68 46.83 47.13 47.03 48.41 50.07 52.63 59.06 61.12 62.47 65.05 67.82 69.80 70.85 71.39 71.36 71.19 71.49 71.27 70.65
46.47 45.10 44.20 45.07 45.74 47.30 46.78 46.13 45.86 45.90 45.90 45.00 45.38 45.74 46.24 46.64 46.42 47.41 47.99 48.91 51.05 54.82 58.30 59.81 64.64 68.01 69.11 70.47 70.86 70.68 70.77 70.90 70.97
45.65 45.49 44.89 45.78 43.83 43.85 45.41 45.91 45.25 44.44 44.50 45.53 45.07 45.09 45.09 45.99 48.39 46.99 47.39 48.56 50.25 50.83 55.05 59.66 60.31 60.87 65.03 68.98 70.07 70.55 70.62 70.81 70.77
44.68 45.31 45.42 44.57 43.77 43.04 42.95 42.22 43.18 43.34 43.50 46.70 46.43 43.93 44.54 46.02 45.61 46.05 48.06 47.45 48.39 48.82 50.46 52.09 54.18 59.22 60.11 64.67 67.87 69.22 70.44 70.75 70.58
43.39 43.63 44.61 44.01 42.73 42.40 42.79 42.43 41.80 42.17 43.95 42.26 41.22 42.00 43.18 43.78 44.89 45.89 45.42 45.92 47.51 47.42 48.12 48.37 51.02 54.51 61.37 63.43 64.03 68.71 69.29 70.13 70.66
42.99 43.02 43.37 43.80 43.27 42.35 42.64 41.76 40.72 41.11 42.28 39.66 38.80 35.69 38.38 41.27 43.75 44.70 45.29 45.05 46.04 47.51 48.19 49.20 53.25 53.77 54.55 58.76 63.76 66.39 67.57 68.22 69.87
42.97 42.44 42.10 41.89 42.05 41.52 41.38 41.51 41.01 39.80 41.14 41.29 38.90 34.67 33.84 36.78 41.34 42.54 43.52 44.05 43.76 44.08 46.63 47.64 50.23 53.05 55.21 58.54 59.02 63.37 66.78 67.29 68.10
43.51 43.37 42.76 42.12 41.89 40.99 41.68 43.86 42.15 40.67 39.66 40.26 43.18 40.04 38.47 35.28 35.14 40.37 41.99 43.00 43.92 43.64 43.80 44.90 47.38 51.11 52.91 57.84 59.11 60.48 61.58 65.59 67.33
43.19 42.96 42.68 42.16 41.81 40.92 41.09 41.53 40.79 41.56 41.69 40.91 38.86 39.04 40.03 39.15 36.82 35.26 37.74 40.69 42.29 43.21 43.79 44.41 49.57 52.45 50.80 51.90 56.67 58.93 59.29 60.68 62.88

GFSFLT1_sfc_wetblb_246.txt.gz
Wetbulb
62.05 62.49 63.76 65.45 66.89 68.46 69.16 70.09 70.29 70.83 71.18 71.55 71.56 71.87 71.64 72.05 68.65 67.56 67.59 68.17 70.27 71.97 71.13 70.56 70.65 70.06 69.27 69.09 69.05 68.85 68.43 68.54 68.39
61.78 61.11 61.31 61.87 61.90 63.45 65.39 66.76 68.12 69.36 69.98 70.12 71.05 71.49 71.60 69.40 66.99 66.26 66.13 66.34 70.16 72.09 71.33 70.72 70.77 70.14 69.62 69.21 69.06 68.57 68.61 68.05 67.87
60.72 60.63 60.91 60.57 60.62 61.05 61.77 62.73 64.04 65.20 66.65 68.22 69.29 69.56 70.17 70.03 68.40 66.25 65.41 67.30 70.27 71.89 71.46 70.85 71.09 70.38 69.93 69.51 69.52 68.96 69.00 68.18 67.54
60.09 59.55 59.83 60.03 60.12 60.75 60.98 61.15 61.40 61.67 62.48 63.66 65.19 68.22 68.25 67.94 68.10 68.33 67.16 68.82 70.26 71.78 71.29 71.35 71.34 70.79 70.01 70.04 69.92 69.23 68.92 68.29 67.79
54.83 58.21 57.82 59.44 60.51 60.27 60.64 60.71 60.87 60.78 60.71 61.21 63.47 63.92 65.07 63.69 63.26 66.28 68.28 70.49 70.83 71.59 71.57 71.47 71.15 70.93 70.47 70.08 69.41 69.29 68.76 68.35 67.64
48.15 54.24 57.37 59.74 58.93 60.54 60.46 60.11 60.26 60.10 57.78 58.13 58.67 58.68 54.71 58.22 63.96 66.94 68.87 69.91 71.01 70.62 71.58 71.56 71.45 71.11 70.74 70.49 69.94 69.29 68.97 68.39 68.11
49.65 51.74 54.30 56.00 57.87 58.37 58.65 58.34 58.19 55.64 49.63 48.62 52.49 50.22 49.47 51.72 55.43 59.21 62.36 68.08 69.51 70.77 70.79 71.28 71.44 71.54 71.31 70.96 70.44 70.41 69.31 68.93 68.28
44.46 45.46 45.81 46.89 51.30 49.83 50.54 48.99 48.20 47.42 46.81 46.93 46.65 46.98 47.34 47.90 48.49 53.62 60.29 63.06 68.62 69.17 70.64 70.98 70.99 71.09 71.49 71.55 70.81 70.41 70.24 69.48 68.98
42.02 42.18 43.44 45.40 46.74 46.71 46.77 46.39 46.81 46.45 46.65 46.03 46.13 46.06 45.53 45.80 47.19 48.89 56.99 59.17 61.22 65.09 69.07 70.26 70.40 70.40 70.84 71.22 71.25 70.79 70.39 70.51 70.43
41.62 41.99 42.44 43.73 44.88 45.44 46.01 45.75 45.93 45.65 45.42 45.69 45.41 44.91 45.17 45.41 46.09 46.55 54.08 57.10 58.32 59.82 61.96 65.48 68.62 70.52 70.58 70.68 70.79 70.87 70.69 70.79 70.81
41.92 41.60 41.47 41.81 43.08 44.59 44.39 44.79 44.95 44.80 44.49 44.76 45.54 45.09 45.19 45.45 45.36 45.97 46.05 54.52 56.16 57.46 58.55 60.31 62.21 65.14 68.54 70.04 70.62 70.39 70.62 70.78 70.99
41.68 41.75 41.23 40.86 42.21 42.76 43.61 44.50 45.35 43.88 45.02 44.15 44.77 45.21 45.19 45.35 45.43 45.62 45.90 47.45 52.24 54.81 56.12 57.35 58.77 60.32 62.48 66.39 67.90 68.52 69.36 70.73 70.70
41.59 41.39 39.86 41.33 41.82 41.58 41.30 41.86 42.53 43.06 42.86 42.33 43.03 43.78 44.13 44.68 44.78 45.46 45.39 45.84 47.38 50.68 53.81 55.51 56.76 58.24 59.83 60.93 63.16 64.58 67.59 69.97 70.21
40.71 40.75 41.17 40.25 40.41 40.61 40.99 41.47 42.01 41.69 41.91 42.67 42.68 42.77 42.93 43.66 46.17 44.41 45.33 45.56 46.25 46.51 50.85 54.08 54.75 55.42 56.60 58.14 60.35 61.86 63.27 65.68 69.02
42.13 42.05 40.84 40.13 39.91 39.52 39.68 38.92 39.97 40.16 40.43 43.48 43.25 41.13 41.84 42.60 42.37 42.67 44.69 44.48 45.39 45.52 46.25 45.64 46.29 53.96 56.49 56.95 58.17 59.37 60.79 62.38 64.35
41.51 41.28 40.75 40.38 38.84 39.94 38.81 38.93 38.37 38.50 38.78 37.56 37.57 38.71 40.42 40.65 41.24 41.51 41.63 42.63 44.23 44.54 45.14 46.01 46.22 47.98 55.86 54.63 57.31 61.26 61.83 61.32 62.35
41.59 41.12 41.04 41.12 40.16 38.74 38.52 38.88 37.99 38.13 39.64 37.38 36.15 33.66 36.37 37.85 40.24 40.46 41.42 40.27 41.43 43.22 44.83 45.59 45.93 46.39 46.64 50.40 55.78 57.91 58.49 61.51 62.80
42.80 41.09 40.91 41.05 39.13 38.42 38.03 38.27 38.42 36.74 37.96 38.71 37.08 31.99 31.93 34.25 37.22 38.49 39.61 40.75 40.23 41.26 42.62 43.99 45.02 44.80 44.26 49.61 54.15 57.85 57.20 58.01 60.45
42.80 42.59 41.22 41.44 41.24 37.43 37.40 38.91 37.58 38.22 36.98 37.55 40.24 36.96 36.13 32.82 31.63 36.10 37.22 38.44 40.13 40.41 41.17 42.45 43.22 43.95 47.26 52.64 53.62 54.39 55.05 54.87 55.97
42.62 42.38 41.77 40.74 41.53 40.91 39.44 38.83 36.79 38.09 37.87 37.31 36.78 36.56 35.71 35.08 33.79 32.03 33.63 36.54 38.66 40.04 40.54 40.86 41.20 43.75 44.06 46.33 49.14 53.48 53.81 53.58 54.32

GFSFLT1_sfc_wetblb_249.txt.gz
Wetbulb
62.81 62.69 62.60 62.12 62.44 62.44 63.56 66.18 67.76 69.44 69.92 70.07 70.95 70.48 71.54 71.97 68.60 67.56 67.68 68.07 70.00 71.46 71.52 71.00 70.77 69.98 69.44 69.30 69.04 69.10 69.04 69.04 69.49
62.29 62.83 61.78 61.67 61.56 61.55 62.22 62.45 63.98 65.38 66.77 68.33 69.91 70.11 70.76 69.03 66.58 66.60 66.56 66.68 70.42 71.39 71.85 71.38 70.70 70.52 69.75 69.45 69.33 69.13 68.73 68.93 68.84
58.45 59.07 60.24 61.26 60.82 61.02 61.38 62.12 62.13 62.48 62.98 64.00 65.76 66.82 68.93 68.67 67.70 66.30 65.62 67.41 70.04 71.03 72.09 71.25 70.89 71.01 70.29 69.74 69.57 69.09 69.06 68.47 68.36
55.30 55.66 57.10 59.62 60.61 60.54 61.60 61.27 61.87 61.84 61.82 61.38 61.92 64.17 66.58 66.61 65.99 66.17 66.96 68.61 70.44 70.80 71.37 71.10 71.09 71.02 70.58 70.08 69.97 69.78 69.23 68.64 68.06
52.03 53.32 54.59 57.32 58.93 61.16 60.31 61.55 61.18 61.33 61.37 60.65 60.67 60.73 59.04 58.43 59.25 62.31 65.19 67.98 70.59 70.85 70.76 71.07 71.11 71.33 70.88 70.50 70.16 70.17 69.04 68.78 68.26
44.88 50.62 53.12 54.55 56.34 57.61 59.35 60.24 60.98 60.08 58.73 57.08 57.28 56.11 50.72 52.44 55.94 60.60 62.01 63.76 68.51 71.05 70.23 71.04 71.11 71.12 71.14 70.57 70.37 69.88 69.36 68.75 68.29
47.48 49.52 51.90 52.46 53.16 54.24 55.00 55.98 58.35 56.43 48.15 47.08 51.74 49.29 49.03 49.46 49.35 52.98 59.25 61.75 66.37 69.82 70.36 70.28 70.98 71.04 70.94 70.86 70.90 69.94 69.60 68.53 68.39
40.75 41.99 41.73 41.88 47.99 45.09 47.06 47.04 48.13 48.81 47.18 46.21 45.99 46.31 46.21 46.94 48.16 49.91 56.65 59.23 61.50 67.41 68.22 70.23 70.70 71.00 70.96 70.97 71.08 71.22 70.24 69.25 68.86
40.01 39.77 39.82 40.65 42.89 42.92 43.84 44.28 45.76 45.62 47.37 47.22 45.07 45.03 44.70 46.63 46.97 48.54 55.21 56.85 58.89 60.91 62.88 65.98 69.73 70.53 70.89 70.88 71.22 71.50 71.18 70.79 70.09
38.41 38.82 39.67 40.45 41.24 41.67 42.19 43.12 44.58 44.75 45.05 45.42 46.18 44.46 44.48 44.59 45.04 45.16 53.36 55.53 57.23 58.64 60.20 61.37 63.07 65.24 66.47 70.05 71.40 71.43 70.97 71.00 70.79
40.00 39.35 39.65 39.21 40.10 41.57 41.02 41.54 42.03 43.44 44.11 43.83 44.70 46.05 44.86 44.75 44.52 44.68 44.75 53.46 54.89 55.87 57.27 58.34 59.04 60.51 61.23 64.58 67.01 71.36 70.86 70.36 70.52
40.33 40.30 39.29 39.39 40.34 40.85 40.97 40.88 41.70 42.30 43.89 42.83 43.94 44.42 44.75 44.99 44.81 44.90 44.46 45.74 51.38 54.07 54.96 55.74 56.89 58.03 59.08 60.06 63.01 67.32 68.47 69.86 70.04
39.94 39.77 39.82 40.27 39.93 39.85 39.50 39.42 39.80 40.22 41.18 41.46 42.14 43.03 43.26 43.89 44.57 44.49 44.36 44.56 45.96 48.79 52.67 54.53 55.44 56.22 56.76 58.16 60.00 62.49 64.72 65.41 67.27
40.59 40.54 40.64 40.40 38.90 38.76 39.50 39.96 39.23 38.70 39.35 41.18 42.24 41.59 42.06 43.05 45.36 43.85 44.16 43.94 44.66 44.22 49.06 52.57 53.48 54.35 56.52 56.79 57.41 57.92 60.65 62.20 64.07
41.46 40.76 40.34 40.65 39.66 38.27 38.47 37.92 38.22 38.72 39.07 42.03 43.35 41.55 41.77 41.88 41.58 42.14 43.82 43.10 43.81 43.80 44.22 44.28 45.67 52.88 55.08 57.53 57.84 58.18 58.73 59.62 61.14
42.03 41.42 40.18 40.43 39.08 38.47 38.27 37.25 36.97 36.79 37.60 36.41 36.26 36.99 38.28 38.72 39.84 40.83 40.87 41.37 42.74 42.39 43.22 43.42 45.02 46.03 52.83 52.30 54.53 59.26 59.31 60.85 61.38
42.85 42.01 41.37 40.84 39.60 39.24 37.83 37.68 35.88 36.50 37.47 36.52 35.16 32.55 35.04 36.97 39.19 39.51 40.83 39.91 40.46 41.96 43.29 43.07 44.43 44.70 45.33 48.03 52.89 55.28 56.73 58.28 59.98
43.19 42.82 42.42 41.60 40.69 38.86 38.49 37.64 36.93 35.57 36.40 38.92 37.25 31.54 31.21 33.49 36.21 37.28 38.65 39.36 39.32 39.66 40.96 42.11 43.36 43.45 42.89 47.85 53.91 54.95 54.00 54.78 56.05
43.16 43.07 42.68 42.33 41.59 39.83 38.87 39.84 38.50 37.28 35.00 37.09 39.99 36.88 34.48 31.93 31.03 34.98 36.32 37.80 38.80 38.67 39.46 40.57 41.78 42.04 43.30 51.16 51.85 52.25 52.87 53.18 53.89
43.19 43.06 42.71 42.13 41.84 40.97 40.63 39.20 39.18 38.76 37.28 35.52 35.87 37.10 34.98 33.91 32.56 30.57 32.97 35.04 37.03 38.45 39.34 39.86 40.19 41.43 42.78 44.35 47.86 51.01 51.54 52.24 52.82

GFSFLT1_sfc_wetblb_252.txt.gz
Wetbulb
61.50 61.53 61.97 63.46 62.73 62.80 62.48 63.05 63.49 64.97 67.33 68.33 69.62 70.39 70.63 70.60 68.50 67.77 67.87 68.46 69.96 70.91 71.38 71.49 71.30 70.63 70.06 70.03 70.24 70.29 70.32 70.15 70.10
58.64 58.62 59.06 60.52 62.17 62.01 62.10 62.32 62.85 63.11 63.59 64.93 66.86 67.73 68.38 68.01 67.33 66.49 66.92 67.30 70.80 71.14 71.47 71.40 71.28 71.02 70.15 69.98 69.74 69.69 69.59 69.63 69.84
55.69 55.85 56.44 57.92 59.81 61.35 62.32 61.86 62.56 62.63 62.77 62.83 63.04 64.20 65.82 65.72 67.28 67.02 66.48 67.78 70.62 70.98 71.52 71.34 71.28 71.19 70.62 70.06 69.96 69.77 69.25 69.31 69.53
53.66 53.47 54.43 55.78 57.63 59.27 60.77 62.43 61.89 62.17 62.06 62.59 62.23 62.55 63.77 59.33 62.80 63.61 64.72 65.91 69.94 71.27 70.61 71.11 71.38 71.28 71.19 70.60 70.32 69.96 69.31 69.18 69.08
51.59 51.97 51.27 54.75 55.51 56.57 57.81 59.15 61.55 62.52 61.32 60.53 59.17 59.32 55.90 55.27 54.83 59.81 63.69 67.10 68.78 70.43 70.73 70.56 71.34 71.53 71.37 70.78 70.58 70.30 69.76 69.46 68.87
44.52 48.71 51.70 53.24 54.02 54.22 55.67 56.91 57.62 58.54 58.49 57.80 56.68 56.12 48.20 49.11 53.66 55.65 58.04 61.63 64.60 67.69 70.21 70.64 71.11 71.22 71.33 71.03 70.57 70.38 70.39 69.81 68.90
46.53 48.59 51.11 51.69 51.60 51.85 52.57 53.25 54.28 52.78 48.81 49.07 52.28 47.18 46.88 47.10 47.44 49.50 56.05 60.03 62.33 67.21 69.12 70.09 70.44 71.16 71.36 71.16 70.80 70.66 71.05 70.13 69.30
39.72 39.56 40.98 39.84 45.39 42.25 44.34 44.22 44.42 44.99 46.04 48.34 47.83 46.35 45.40 45.11 45.85 48.63 56.16 57.83 60.15 61.92 63.75 65.50 68.61 70.78 71.18 71.14 70.91 71.13 71.36 70.91 69.74
38.30 39.03 39.09 38.52 39.95 40.15 40.62 41.32 42.26 43.15 44.71 45.30 45.60 45.96 44.70 44.24 45.26 47.16 55.17 56.70 58.28 59.72 61.10 62.65 65.81 69.11 70.59 70.92 70.89 71.10 71.46 71.36 69.53
38.30 37.84 37.83 38.44 39.53 39.49 39.56 40.06 41.07 41.10 42.08 44.05 44.34 44.23 44.20 45.03 45.01 46.14 52.48 54.78 56.24 57.63 59.09 60.25 61.13 62.54 62.77 62.60 65.38 69.09 70.35 71.24 70.95
39.30 38.16 37.96 38.14 38.70 39.31 39.33 39.33 39.79 40.09 41.24 42.36 43.53 43.35 44.02 45.65 44.74 46.56 47.40 52.05 53.51 55.15 56.61 57.23 58.07 59.11 60.62 61.48 61.93 63.19 65.91 71.08 70.86
39.05 39.01 38.18 38.11 38.93 39.54 39.35 39.39 39.22 39.38 41.30 41.01 42.23 43.11 43.61 44.13 44.40 44.91 45.21 46.75 50.56 52.60 53.53 55.33 56.76 57.46 58.33 58.81 59.72 61.17 64.37 70.23 70.43
39.21 39.16 39.21 39.26 38.66 38.76 38.37 37.88 37.93 37.97 38.58 38.81 40.16 41.83 42.16 42.90 44.65 45.73 45.15 44.61 45.56 48.01 51.51 53.34 54.62 55.64 56.31 57.35 57.50 59.94 62.74 65.19 64.50
41.75 40.81 40.01 40.21 39.12 37.53 38.06 38.97 37.58 37.09 37.12 38.55 39.50 40.20 40.88 41.72 44.43 44.11 45.77 45.22 45.43 43.92 48.07 51.65 52.36 53.99 55.44 56.82 57.41 58.93 59.73 60.99 63.40
42.79 42.13 41.83 41.75 39.34 38.67 36.98 36.90 37.62 37.52 37.39 40.48 40.36 39.38 40.79 41.54 41.44 42.33 44.57 45.20 45.14 43.52 43.79 43.81 44.56 51.92 54.42 56.59 57.45 58.17 60.11 59.98 60.74
43.00 42.62 42.30 42.10 40.43 38.97 37.76 36.50 36.34 36.30 36.45 35.07 34.71 35.83 37.58 38.78 39.88 40.59 40.47 41.43 43.95 43.74 42.60 42.63 43.32 44.84 52.94 52.79 53.48 58.26 58.79 62.38 62.05
43.09 42.96 42.75 42.61 41.55 40.64 39.83 36.19 35.17 35.24 36.02 34.17 33.22 31.08 34.29 35.82 37.91 38.40 40.01 39.63 40.77 42.44 43.62 42.83 43.39 43.80 45.11 47.37 53.12 54.38 56.17 58.18 60.02
43.11 43.20 42.91 42.61 42.49 41.06 40.26 38.61 35.24 34.86 35.20 36.41 34.88 30.01 29.80 32.63 35.53 36.79 38.53 39.44 38.51 39.57 40.98 42.96 43.28 43.15 42.78 46.16 52.34 55.18 54.05 54.96 55.21
42.45 42.87 43.04 42.84 42.87 41.92 40.99 40.75 37.61 35.25 34.56 36.08 39.12 36.09 34.21 31.84 30.82 34.38 35.73 37.19 38.21 38.08 38.96 40.53 42.20 42.71 42.47 47.31 53.21 52.52 52.66 52.33 52.82
41.99 42.40 42.43 42.55 42.99 42.49 41.85 40.77 40.00 39.21 37.90 37.15 37.24 37.85 35.37 33.81 33.01 29.79 32.27 34.45 36.20 37.52 38.28 38.92 39.80 41.29 42.78 44.25 47.00 51.45 50.71 50.72 51.72